Regional Weather Roundup
Issued by NWS

Home | Current Version | Previous Version | Text Only | Print | Product List | Glossary On
Versions: 1 2 3 4 5 6 7 8 9 10 11 12 13 14 15 16 17 18 19 20 21 22 23 24 25 26 27 28 29 30 31 32 33 34 35 36 37 38 39 40 41 42 43 44 45 46 47 48 49 50
868
ASUS44 KLIX 070411
RWRLA
LOUISIANA WEATHER ROUNDUP
NATIONAL WEATHER SERVICE NEW ORLEANS LA
1000 PM CST SAT FEB 06 2016

NOTE: "FAIR" INDICATES FEW OR NO CLOUDS BELOW 12,000 FEET WITH NO
      SIGNIFICANT WEATHER AND/OR OBSTRUCTIONS TO VISIBILITY.
      SKY/WX - SKY CONDITION AND SIGNIFICANT WEATHER.
      TMP - AIR TEMPERATURE.    DP   - DEWPOINT TEMPERATURE.
      RH  - RELATIVE HUMIDITY.  PRES - PRESSURE.
      HX  - HEAT INDEX.         WCI  - WIND CHILL INDEX.

*  THESE STATIONS ARE NOT NWS OR FAA STATIONS AND ARE NOT UNDER
   NWS QUALITY CONTROL.

LAZ040-048-061>063-065-066-069-070500-
SOUTHEAST LOUISIANA

CITY           SKY/WX    TMP DP  RH WIND       PRES   REMARKS
N.O. AUDUBON   NOT AVBL
N.O. INTL ARPT PTCLDY    45  29  53 W6        30.30S
N.O. LAKEFRONT CLEAR     51  38  60 NW9       30.30S
N.O. DOWNTOWN* FAIR      52  28  40 MISG      30.30S
RESERVE*       FAIR      42  38  86 CALM      30.30F
SLIDELL        CLEAR     37  34  89 CALM      30.29S
BATON ROUGE    CLEAR     45  23  42 NW3       30.31S
BOOTHVILLE     PTCLDY    47  36  65 NW5       30.29R
BELLE CHASSE   PTCLDY    38  30  73 W3        30.30R
BOGALUSA*        N/A     36  31  81 CALM      30.31S
GALLIANO*      CLEAR     43  37  80 CALM      30.30S
NEW ROADS*     FAIR      40  33  77 W3        30.33S
GONZALES*      FAIR      40  35  81 CALM      30.30S
HAMMOND*       CLEAR     36  32  87 CALM      30.30S
HOUMA*         PTCLDY    39  36  86 CALM      30.30S
PORT FOURCHON* CLEAR     48  39  71 N6        30.30S

$$

LAZ041-044-053-054-070500-
SOUTHWEST LOUISIANA

CITY           SKY/WX    TMP DP  RH WIND       PRES   REMARKS
LAKE CHARLES   CLEAR     39  37  92 NW3       30.35R
LAFAYETTE      CLEAR     44  36  73 NW6       30.33S
PATTERSON      CLEAR     45  34  65 NW5       30.32F
SALT POINT       N/A     47  37  68 N3        30.31S
NEW IBERIA     CLEAR     41  36  82 NW6       30.34S
CHENAULT AIRPK CLEAR     39  39 100 CALM      30.34S

$$

LAZ027-028-070500-
CENTRAL LOUISIANA

CITY           SKY/WX    TMP DP  RH WIND       PRES   REMARKS
FORT POLK      CLEAR     38  38  98 NW6       30.34S WCI  34
ALEXANDRIA INT CLEAR     40  37  89 W3        30.33S
ALEXANDRIA     CLEAR     37  28  70 CALM      30.34S

$$

LAZ001-002-070500-
NORTHWEST LOUISIANA

CITY           SKY/WX    TMP DP  RH WIND       PRES   REMARKS
SHREVEPORT     CLEAR     40  34  79 W6        30.35S
BARKSDALE AFB  CLEAR     44  35  70 VRB2      30.34S
DTN SHREVEPORT CLEAR     43  33  68 W6        30.35S

$$

LAZ014-016-070500-
NORTHEAST LOUISIANA

CITY           SKY/WX    TMP DP  RH WIND       PRES   REMARKS
MONROE         CLEAR     38  30  73 CALM      30.34S
TALLULAH       CLEAR     37  30  75 CALM      30.34R

$$





USA.gov is the U.S. government's official web portal to all federal, state and local government web resources and services.